COSMOS 1275 DEB, 12692

Orbit data source: Space-Track

COSMOS 1275 DEB, 12692 is space debris in LEO originally from a launch on Thu, 04 Jun 1981 UTC launched from the Plesetsk Missile And Space Complex (PKMTR). Debris objects in space refer to the collection of defunct objects orbiting the Earth. Examples of debris include non-operational satellites, rocket bodies, and fragments generated from explosions, collisions, or faulty payload assembly.

Loading next visibility...
Identifier
12692, 1981-053AL
Orbit
LEO
Country
Flag of CISCIS
Related business
Manufacturer
Unknown
Mission
Spacecraft
Bus & Motor
Unknown
Mass
Unknown
Launch date (UTC)
1981-06-04 (45 years ago)
Launch vehicle
Unknown
Launch site
Plesetsk Missile And Space Complex (PKMTR)
Object type
Payload
Rocket body
Debris
Shape & HBR
Unknown shape, 0.4 m
Radar Cross Section
Medium (>0.1 m² and <1 m²)

Expand to show TLE details & history
Last TLE update: 15 hours ago

TLE from 15 hours ago
0 COSMOS 1275 DEB
1 12692U 81053AL  26035.34052070  .00001774  00000-0  62254-3 0  9995
2 12692  82.8987 142.9615 0067075  57.7947 302.9721 14.33298259298982
Epoch: 2026-02-04T08:10Z
TLE epoch observation values (Epoch: 2026-02-04T08:10:20.988Z)
Latitude
-0.00003°
Longitude
-114.13446°
Altitude
757.797 km
Speed
7.489 km/s
True Right ascension
09h 31m 50s
True Declination
0° 00' 00"
Sunlit
Object was in full shadow at epoch
Visualization orbit readout
Latitude
Unknown
Longitude
Unknown
Altitude
Unknown
Speed
Unknown
Apparent Right ascension
Unknown
Apparent Declination
Unknown
Sunlit
N/A
Visualization observer readout
Local Sidereal Time
01:39:03
Azimuth
Unknown
Elevation
Unknown
Doppler factor
Unknown
Orbital elements
Apogee altitude
825.796 km
Perigee altitude
729.799 km
Semi-major axis
7,155.934 km
Eccentricity
0.00671
Inclination
82.8987°
RAAN
142.9615°
Arg. of periapsis
57.7947°
True anomaly
302.32433°
Mean anomaly
302.9721°
Eccentric anomaly
302.64851°
Mean motion
3.58545 °/min
Orbital period
100.41 mins
BSTAR
0.00062254
Loading maneuver chart data...
Computing Atmospheric mass density...

Documentation

Showing up to 5 results
|